Weather Roundup
Issued by NWS

Home | Current Version | Previous Version | Text Only | Print | Product List | Glossary On
Versions: 1 2 3 4 5 6 7 8 9 10 11 12 13 14 15 16 17 18 19 20 21 22 23 24 25 26 27 28 29 30 31 32 33 34 35 36 37 38 39 40 41 42 43 44 45 46 47 48 49 50
000
NZUS93 KARX 191559
HRRWXR

CURRENT HOURLY OBSERVATIONS ACROSS
MUCH OF THE UPPER MISSISSIPPI VALLEY
NATIONAL WEATHER SERVICE LA CROSSE WI
1000 AM CST SUN FEB 19 2017


...SOUTHEAST MINNESOTA...


CITY           SKY/WX    TMP DP  RH WIND       PRES   REMARKS
ROCHESTER      MOSUNNY   43  38  82 S14       29.97F
ROCHESTER/MAYO FAIR      44  37  76 SE9       29.97F
WINONA         SUNNY     39  34  81 SE3       30.02S
AUSTIN         CLOUDY    43  39  87 SE6       29.97S
ALBERT LEA     CLOUDY    43  43 100 SE9       29.95S
DODGE CENTER   MOSUNNY   41  37  87 SE10      29.96F
PRESTON        MOSUNNY   44  36  75 S8        29.99F
OWATONNA       CLOUDY    46  39  76 SE12      29.94S
FARIBAULT      CLOUDY    48  41  76 SE7       29.94S
$$

...ELSEWHERE IN MINNESOTA...


CITY           SKY/WX    TMP DP  RH WIND       PRES   REMARKS
MINNEAPOLIS    PTSUNNY   46  37  71 SE7       29.95F
INTNL FALLS    PTSUNNY   35  29  78 SE8       29.94S WCI  29
DULUTH         MOSUNNY   39  32  76 SE10      29.96S WCI  32
RED WING       MOSUNNY   39  36  87 SE7       29.97F WCI  34
REDWOOD FALLS  CLOUDY    44  38  79 SE16      29.83F
MANKATO          N/A     45  40  82 SE13      29.92R
WORTHINGTON    CLOUDY    46  39  76 S15       29.84F
FAIRMONT       SUNNY     44  39  82 S14       29.89F
$$

...SOUTHWEST WISCONSIN...


CITY           SKY/WX    TMP DP  RH WIND       PRES   REMARKS
LA CROSSE      SUNNY     41  33  73 SE5       30.03R
PRAIRIE DU CHI SUNNY     37  36  96 CALM      30.03S
BOSCOBEL       SUNNY     41  33  73 CALM      30.04S
LONE ROCK      NOT AVBL
PLATTEVILLE    SUNNY     48  40  73 S3        30.04R
FORT MC COY    CLOUDY    40  33  75 CALM      30.03R
MAUSTON-NEW LI SUNNY     46  35  63 CALM      30.01R
VIROQUA        FAIR      48  33  54 CALM      30.02R
WIS DELLS      SUNNY     47  35  63 CALM      30.02S
$$

...ELSEWHERE IN WISCONSIN...


CITY           SKY/WX    TMP DP  RH WIND       PRES   REMARKS
MILWAUKEE      MOSUNNY   57  30  35 NE8       30.05R
MADISON        MOSUNNY   49  36  61 S3        30.03R
GREEN BAY      SUNNY     53  34  48 NE5       30.03S
EAU CLAIRE     NOT AVBL
BLACK RVR FLS  FAIR      44  31  61 CALM      30.02R
MEDFORD        SUNNY     40  33  77 E5        30.00S
WAUSAU         SUNNY     44  34  67 CALM      30.01R
WIS RAPIDS     SUNNY     48  36  63 CALM      30.04R
MARSHFIELD     SUNNY     44  35  70 SE3       30.01R
RICE LAKE      SUNNY     43  36  76 CALM      30.01R
$$

...NORTHEAST IOWA...


CITY           SKY/WX    TMP DP  RH WIND       PRES   REMARKS
WATERLOO       SUNNY     43  40  89 SE5       30.00S
DUBUQUE        SUNNY     52  41  66 S6        30.02S
DECORAH        SUNNY     48  37  66 S8        29.99F
MASON CITY     SUNNY     43  40  89 SE10      29.97F
CHARLES CITY   CLOUDY    45  45 100 SE8       29.99S
OELWEIN        CLOUDY    46  43  87 SE9       30.01S
$$

...ELSEWHERE IN IOWA...


CITY           SKY/WX    TMP DP  RH WIND       PRES   REMARKS
DES MOINES     MOSUNNY   55  41  59 S13       29.97S
IOWA CITY      SUNNY     50  41  71 E3        30.04S
FORT DODGE     MOSUNNY   46  39  76 SE6       29.94S
MARSHALLTOWN   SUNNY     49  42  77 SE10      29.97S
CEDAR RAPIDS   SUNNY     51  43  74 SE8       30.01R
$$

...NORTHERN ILLINOIS...


CITY           SKY/WX    TMP DP  RH WIND       PRES   REMARKS
CHICAGO-OHARE  MOSUNNY   57  33  40 E3        30.05R
CHICAGO-MIDWAY MOSUNNY   56  34  43 CALM      30.05R
MOLINE         SUNNY     54  40  59 CALM      30.04R
ROCKFORD       MOSUNNY   53  39  59 CALM      30.07R
PEORIA         SUNNY     46  44  93 S5        30.06S
$$

NOTE: "FAIR" INDICATES FEW OR NO CLOUDS BELOW 12,000 FEET WITH NO
SIGNIFICANT WEATHER AND/OR OBSTRUCTIONS TO VISIBILITY. WIND
SPEEDS ARE IN MILES-PER-HOUR.




USA.gov is the U.S. government's official web portal to all federal, state and local government web resources and services.